This demonstration page uses our WeatherBlox Daily Observations layout. Learn more.

41.55636, -103.73856

Hourly Observations for October 19, 2019

Temp ( °F °C ) Dew Point ( °F °C ) Humidity (%) Winds ( mph kmh ) Pressure ( in mb ) Visibility ( mi km ) Precip ( " mm )
12:58 am 00:58 Clear 36 2.4 19 -7 50 50 WNW 13 20 29.88 1012 10 16.09344 0 0
1:58 am 01:58 Clear 37 2.8 18 -7.6 47 47 WNW 12 19 29.88 1012 10 16.09344 0 0
2:58 am 02:58 Clear 36 2.1 18 -7.8 48 48 WNW 13 20 29.88 1012 10 16.09344 0 0
3:58 am 03:58 Clear 39 4 18 -7.6 43 43 NW 17 28 29.83 1010 10 16.09344 0 0
4:58 am 04:58 Clear 38 3.5 20 -6.8 47 47 NNW 10 17 29.85 1011 10 16.09344 0 0
5:58 am 05:58 Clear 36 2 20 -6.7 53 53 W 7 11 29.88 1012 10 16.09344 0 0
6:58 am 06:58 Clear 32 0 20 -6.6 62 62 W 12 19 29.94 1014 10 16.09344 0 0
7:58 am 07:58 Sunny 33 0.5 20 -6.5 60 60 W 6 9 29.97 1015 10 16.09344 0 0
8:58 am 08:58 Sunny 42 5.5 21 -6 44 44 WSW 7 11 29.94 1014 10 16.09344 0 0
9:58 am 09:58 Sunny 48 8.8 19 -7.2 32 32 W 12 19 29.91 1013 10 16.09344 0 0
10:58 am 10:58 Sunny 51 10.8 19 -7.3 28 28 WNW 13 20 29.85 1011 10 16.09344 0 0
11:58 am 11:58 Mostly Sunny 55 12.9 20 -6.6 25 25 NW 15 24 29.85 1011 10 16.09344 0 0
12:58 pm 12:58 Partly Cloudy 56 13.1 19 -7.5 23 23 WNW 14 22 29.8 1009 10 16.09344 0 0
1:58 pm 13:58 Partly Cloudy 56 13.6 17 -8.3 21 21 NW 13 20 29.74 1007 10 16.09344 0 0
2:58 pm 14:58 Partly Cloudy 61 16 12 -11.1 15 15 W 25 41 29.71 1006 10 16.09344 0 0
3:58 pm 15:58 Mostly Cloudy 57 14.1 12 -11.1 16 16 WNW 13 20 29.71 1006 10 16.09344 0 0
4:58 pm 16:58 Sunny 58 14.2 13 -10.5 17 17 WNW 10 17 29.68 1005 10 16.09344 0 0
5:58 pm 17:58 Cloudy 53 11.8 15 -9.6 22 22 SSW 7 11 29.71 1006 10 16.09344 0 0
6:58 pm 18:58 Mostly Cloudy 54 12.2 19 -7.1 26 26 Calm 29.74 1007 10 16.09344 0 0
7:58 pm 19:58 Cloudy 53 11.6 19 -7.3 26 26 SSE 13 20 29.71 1006 10 16.09344 0 0
8:58 pm 20:58 Cloudy 54 12.1 18 -7.8 24 24 S 5 7 29.65 1004 10 16.09344 0 0
9:58 pm 21:58 Cloudy 49 9.3 20 -6.7 32 32 ESE 13 20 29.59 1002 10 16.09344 0 0
10:58 pm 22:58 Cloudy 49 9.4 17 -8.2 28 28 SE 14 22 29.56 1001 10 16.09344 0 0
11:58 pm 23:58 Mostly Cloudy 45 7.2 17 -8.2 33 33 SE 7 11 29.5 999 10 16.09344 0 0

Powered by AerisWeather